When you browse on this site, cookies collect data to enhance your experience and personalize the content and advertising you see.
Visit our Privacy Policy to learn more. By continuing to use the site, you agree to this use of cookies and data.
  • In Switzerland
  • List of Countries
  • For 7 days
  • Water Temperature
  • Weather Map
  • Weather Widgets
  • user-avatar
    Login

    Hourly Weather Peresvetovo

    Today, 13 December, Friday

    Time Temperature Precipitation Wind Pressure Humidity
    00:00 -1°C° 0 mm 5 mps 744 mmHg 94%
    01:00 -1°C° 0 mm 5 mps 744 mmHg 94%
    02:00 -1°C° 0 mm 4 mps 744 mmHg 92%
    03:00 -1°C° 0 mm 4 mps 743 mmHg 92%
    04:00 -1°C° 0 mm 4 mps 743 mmHg 91%
    05:00 -2°C° 0 mm 4 mps 743 mmHg 91%
    06:00 -2°C° 0.1 mm 4 mps 743 mmHg 92%
    07:00 -2°C° 0.1 mm 4 mps 742 mmHg 92%
    08:00 -2°C° 0 mm 4 mps 742 mmHg 92%
    09:00 -2°C° 0 mm 4 mps 742 mmHg 91%
    10:00 -2°C° 0 mm 5 mps 742 mmHg 90%
    11:00 -1°C° 0 mm 5 mps 741 mmHg 89%
    12:00 -2°C° 0.1 mm 5 mps 741 mmHg 90%
    13:00 -2°C° 0.1 mm 5 mps 741 mmHg 90%
    14:00 -2°C° 0.1 mm 5 mps 741 mmHg 91%
    15:00 -2°C° 0 mm 5 mps 740 mmHg 91%
    16:00 -2°C° 0 mm 4 mps 740 mmHg 90%
    17:00 -3°C° 0 mm 4 mps 740 mmHg 90%
    18:00 -2°C° 0 mm 4 mps 740 mmHg 90%
    19:00 -2°C° 0 mm 5 mps 740 mmHg 89%
    20:00 -2°C° 0 mm 5 mps 740 mmHg 88%
    21:00 -2°C° 0 mm 5 mps 740 mmHg 87%
    22:00 -2°C° 0 mm 5 mps 740 mmHg 86%
    23:00 -1°C° 0 mm 5 mps 740 mmHg 85%

    Tomorrow, 14 December, Saturday

    Time Temperature Precipitation Wind Pressure Humidity
    00:00 -2°C° 0 mm 5 mps 740 mmHg 85%
    01:00 -2°C° 0 mm 5 mps 740 mmHg 85%
    02:00 -2°C° 0 mm 5 mps 740 mmHg 84%
    03:00 -2°C° 0 mm 5 mps 740 mmHg 84%
    04:00 -2°C° 0 mm 5 mps 739 mmHg 84%
    05:00 -2°C° 0 mm 5 mps 739 mmHg 83%
    06:00 -2°C° 0 mm 5 mps 740 mmHg 84%
    07:00 -2°C° 0 mm 5 mps 740 mmHg 85%
    08:00 -2°C° 0 mm 5 mps 740 mmHg 86%
    09:00 -2°C° 0 mm 5 mps 740 mmHg 85%
    10:00 -2°C° 0 mm 5 mps 740 mmHg 84%
    11:00 -2°C° 0 mm 5 mps 740 mmHg 84%
    12:00 -2°C° 0 mm 5 mps 740 mmHg 83%
    13:00 -2°C° 0 mm 5 mps 740 mmHg 83%
    14:00 -1°C° 0 mm 4 mps 740 mmHg 83%
    15:00 -2°C° 0 mm 4 mps 740 mmHg 84%
    16:00 -2°C° 0 mm 4 mps 740 mmHg 86%
    17:00 -2°C° 0 mm 4 mps 739 mmHg 87%
    18:00 -2°C° 0 mm 4 mps 739 mmHg 89%
    19:00 -2°C° 0 mm 4 mps 739 mmHg 90%
    20:00 -2°C° 0 mm 4 mps 739 mmHg 92%
    21:00 -2°C° 0 mm 4 mps 739 mmHg 92%
    22:00 -1°C° 0 mm 4 mps 739 mmHg 93%
    23:00 -1°C° 0 mm 4 mps 739 mmHg 93%

    Day after tomorrow, 15 December, Sunday

    Time Temperature Precipitation Wind Pressure Humidity
    00:00 -1°C° 0 mm 4 mps 738 mmHg 94%
    01:00 -1°C° 0 mm 4 mps 738 mmHg 94%
    02:00 0°C° 0 mm 5 mps 738 mmHg 94%
    03:00 0°C° 0.2 mm 5 mps 738 mmHg 95%
    04:00 0°C° 0.2 mm 5 mps 737 mmHg 95%
    05:00 0°C° 0.2 mm 4 mps 736 mmHg 96%
    06:00 +1°C° 0.3 mm 4 mps 736 mmHg 95%
    07:00 +1°C° 0.3 mm 4 mps 736 mmHg 95%
    08:00 +2°C° 0.3 mm 5 mps 736 mmHg 95%
    09:00 +2°C° 0.5 mm 5 mps 736 mmHg 95%
    10:00 +2°C° 0.5 mm 5 mps 736 mmHg 95%
    11:00 +2°C° 0.5 mm 5 mps 736 mmHg 95%
    12:00 +2°C° 0.2 mm 5 mps 736 mmHg 92%
    13:00 +1°C° 0.2 mm 4 mps 737 mmHg 88%
    14:00 +1°C° 0.2 mm 4 mps 737 mmHg 85%
    15:00 0°C° 0 mm 4 mps 738 mmHg 86%
    16:00 0°C° 0 mm 4 mps 738 mmHg 86%
    17:00 -1°C° 0 mm 4 mps 739 mmHg 87%
    18:00 -1°C° 0 mm 4 mps 739 mmHg 88%
    19:00 -1°C° 0 mm 3 mps 740 mmHg 90%
    20:00 -1°C° 0 mm 3 mps 740 mmHg 91%
    21:00 -2°C° 0 mm 4 mps 740 mmHg 90%
    22:00 -1°C° 0 mm 4 mps 740 mmHg 90%
    23:00 -1°C° 0 mm 4 mps 741 mmHg 89%

    16 December, Monday

    Time Temperature Precipitation Wind Pressure Humidity
    00:00 -1°C° 0.1 mm 5 mps 740 mmHg 92%
    01:00 -1°C° 0.1 mm 5 mps 740 mmHg 94%
    02:00 -1°C° 0.1 mm 5 mps 740 mmHg 97%
    03:00 0°C° 0.2 mm 5 mps 740 mmHg 95%
    04:00 +1°C° 0.2 mm 5 mps 740 mmHg 93%
    05:00 +1°C° 0.2 mm 4 mps 741 mmHg 92%
    06:00 +1°C° 0 mm 4 mps 741 mmHg 92%
    07:00 0°C° 0 mm 4 mps 741 mmHg 93%
    08:00 0°C° 0 mm 3 mps 742 mmHg 94%
    09:00 +1°C° 0 mm 3 mps 742 mmHg 92%
    10:00 +1°C° 0 mm 3 mps 743 mmHg 89%
    11:00 +1°C° 0 mm 3 mps 743 mmHg 87%
    12:00 +1°C° 0 mm 3 mps 743 mmHg 88%
    13:00 +1°C° 0 mm 3 mps 743 mmHg 89%
    14:00 +1°C° 0 mm 3 mps 744 mmHg 90%
    15:00 +1°C° 0 mm 3 mps 744 mmHg 90%
    16:00 0°C° 0 mm 3 mps 744 mmHg 90%
    17:00 -1°C° 0 mm 3 mps 744 mmHg 90%
    18:00 -1°C° 0 mm 3 mps 745 mmHg 91%
    19:00 -1°C° 0 mm 3 mps 745 mmHg 91%
    20:00 -1°C° 0 mm 3 mps 745 mmHg 92%
    21:00 -1°C° 0 mm 3 mps 745 mmHg 92%
    22:00 0°C° 0 mm 3 mps 745 mmHg 92%
    23:00 0°C° 0 mm 3 mps 746 mmHg 93%

    17 December, Tuesday

    Time Temperature Precipitation Wind Pressure Humidity
    00:00 0°C° 0 mm 3 mps 746 mmHg 93%
    01:00 -1°C° 0 mm 3 mps 746 mmHg 94%
    02:00 -1°C° 0 mm 2 mps 746 mmHg 95%
    03:00 -1°C° 0 mm 2 mps 746 mmHg 95%
    04:00 -1°C° 0 mm 2 mps 746 mmHg 95%
    05:00 -1°C° 0 mm 2 mps 746 mmHg 95%
    06:00 -1°C° 0 mm 2 mps 746 mmHg 95%
    07:00 -1°C° 0 mm 2 mps 746 mmHg 95%
    08:00 -1°C° 0 mm 2 mps 746 mmHg 95%
    09:00 +1°C° 0 mm 2 mps 746 mmHg 93%
    10:00 +1°C° 0 mm 3 mps 746 mmHg 92%
    11:00 +2°C° 0 mm 3 mps 746 mmHg 91%
    12:00 +2°C° 0 mm 3 mps 746 mmHg 92%
    13:00 +2°C° 0 mm 3 mps 745 mmHg 92%
    14:00 +1°C° 0 mm 4 mps 745 mmHg 92%
    15:00 +1°C° 0 mm 4 mps 745 mmHg 92%
    16:00 +1°C° 0 mm 4 mps 745 mmHg 92%
    17:00 +1°C° 0 mm 4 mps 745 mmHg 91%
    18:00 0°C° 0 mm 4 mps 745 mmHg 91%
    19:00 0°C° 0 mm 4 mps 744 mmHg 92%
    20:00 0°C° 0 mm 4 mps 744 mmHg 92%
    21:00 0°C° 0 mm 4 mps 744 mmHg 92%
    22:00 0°C° 0 mm 4 mps 744 mmHg 92%
    23:00 -1°C° 0 mm 4 mps 744 mmHg 92%

    18 December, Wednesday

    Time Temperature Precipitation Wind Pressure Humidity
    00:00 -1°C° 0 mm 4 mps 744 mmHg 92%
    01:00 0°C° 0 mm 3 mps 744 mmHg 92%
    02:00 0°C° 0 mm 3 mps 744 mmHg 92%
    03:00 0°C° 0 mm 3 mps 743 mmHg 92%
    04:00 0°C° 0 mm 3 mps 743 mmHg 92%
    05:00 0°C° 0 mm 3 mps 743 mmHg 92%
    06:00 0°C° 0 mm 3 mps 743 mmHg 92%
    07:00 0°C° 0 mm 3 mps 742 mmHg 93%
    08:00 0°C° 0 mm 3 mps 742 mmHg 93%
    09:00 0°C° 0 mm 3 mps 742 mmHg 93%
    10:00 0°C° 0 mm 3 mps 742 mmHg 93%
    11:00 +1°C° 0 mm 3 mps 742 mmHg 92%
    12:00 +1°C° 0 mm 3 mps 742 mmHg 93%
    13:00 +1°C° 0 mm 3 mps 741 mmHg 93%
    14:00 +1°C° 0 mm 3 mps 741 mmHg 93%
    15:00 +1°C° 0 mm 3 mps 741 mmHg 94%
    16:00 +1°C° 0 mm 3 mps 741 mmHg 95%
    17:00 +1°C° 0 mm 3 mps 741 mmHg 95%
    18:00 +1°C° 0 mm 3 mps 740 mmHg 96%
    19:00 +2°C° 0 mm 3 mps 740 mmHg 96%
    20:00 +2°C° 0 mm 3 mps 740 mmHg 97%
    21:00 +2°C° 0 mm 3 mps 741 mmHg 97%
    22:00 +2°C° 0 mm 3 mps 741 mmHg 96%
    23:00 +3°C° 0 mm 3 mps 741 mmHg 96%
    Show more